Location: Newark
(39.6867°N, 100.6772°W)
Time: 04:43:47
(UTC+00:00)

Vanguard 1 Rocket - Pass Details

Date: 23 October 2019
Orbit: 651 x 4225 km, 34.3° (Epoch: 12 November)

Event Time Altitude Azimuth Distance (km) Brightness Sun altitude
Rises 14:00:20 0° 196° (SSW) 4,188 10.9 9.9°
Reaches altitude 10° 14:03:21 10° 183° (S) 3,606 10.8 10.4°
Maximum altitude 14:10:54 25° 131° (SE) 3,487 12.1 11.7°
Drops below altitude 10° 14:22:53 10° 85° (E) 5,922 12.7 13.8°
Sets 14:29:49 0° 75° (ENE) 7,553 12.8 15.0°
